Regional Weather Roundup
Issued by NWS

Home | Current Version | Previous Version | Graphics & Text | Print | Product List | Glossary On
Versions: 1 2 3 4 5 6 7 8 9 10 11 12 13 14 15 16 17 18 19 20 21 22 23 24 25 26 27 28 29 30 31 32 33 34 35 36 37 38 39 40 41 42 43 44 45 46 47 48 49 50
858
ASUS43 KDMX 240306
RWRIA

WEATHER ROUNDUP FOR IOWA
NATIONAL WEATHER SERVICE DES MOINES IA
900 PM CST MON JAN 23 2017

NOTE: "FAIR" INDICATES FEW OR NO CLOUDS BELOW 12,000 FEET WITH NO
SIGNIFICANT WEATHER AND/OR OBSTRUCTIONS TO VISIBILITY.

* - THESE STATIONS ARE NOT NWS STATIONS...THUS NOT UNDER NWS
QUALITY CONTROL.  THEY ALSO DO NOT REPORT WEATHER SUCH
AS PRECIPITATION OR FOG.

IAZ001>003-012>014-020>022-031>034-043>046-240400-
   NORTHWEST IOWA

CITY           SKY/WX    TMP DP  RH WIND       PRES   REMARKS
CARROLL *      CLOUDY    32  32 100 CALM      29.85R
CHEROKEE *     CLOUDY    32  31  96 CALM      29.84S
DENISON *      CLOUDY    32  30  93 SE5       29.82S WCI  27
LE MARS *      CLOUDY    32  30  93 SE6       29.84S WCI  26
ORANGE CITY *  CLOUDY    32  30  93 SE3       29.83R
SHELDON *      CLOUDY    32  32 100 SE5       29.81S WCI  27
SIOUX CITY     CLOUDY    34  30  85 SE6       29.84R WCI  29
SPENCER        CLOUDY    32  30  92 CALM      29.83S
STORM LAKE *   CLOUDY    32  30  93 SE6       29.83R WCI  26
$$

IAZ055>058-069>071-079>083-090>094-240400-
   SOUTHWEST IOWA

CITY           SKY/WX    TMP DP  RH WIND       PRES   REMARKS
ATLANTIC *     CLOUDY    32  30  93 SE5       29.84F WCI  27
AUDUBON *      CLOUDY    32  28  86 S7        29.85S WCI  26
CLARINDA *     CLOUDY    32  30  93 SE6       29.86S WCI  26
COUNCIL BLFS * CLOUDY    32  32 100 SE10      29.82S WCI  24
CRESTON *      CLOUDY    32  30  93 SE5       29.86S WCI  27
HARLAN  *      CLOUDY    32  32 100 SE7       29.87S WCI  26
LAMONI         CLOUDY    32  28  85 CALM      29.86R
RED OAK *      CLOUDY    32  30  93 MISG      29.84F
SHENANDOAH *   CLOUDY    32  30  93 E8        29.84F WCI  25
$$

IAZ047>049-059>061-072>074-084-240400-
   CENTRAL IOWA

CITY           SKY/WX    TMP DP  RH WIND       PRES   REMARKS
AMES           CLOUDY    33  31  92 CALM      29.85S
ANKENY *       CLOUDY    32  30  93 CALM      29.86S
BOONE *        CLOUDY    32  32 100 CALM      29.83S
CHARITON *     CLOUDY    32  30  93 CALM      29.86R
DES MOINES     CLOUDY    34  28  79 SE3       29.86R
GRINNELL*      CLOUDY    32  29  89 N3        29.86S
KNOXVILLE *    CLOUDY    32  28  86 CALM      29.85S
MARSHALLTOWN   CLOUDY    32  31  96 CALM      29.84R
NEWTON *       CLOUDY    32  30  93 CALM      29.84S
PELLA *        CLOUDY    32  29  88 CALM      29.87S
PERRY *        CLOUDY    33  31  91 CALM      29.85R
$$

IAZ004>006-015-016-023>025-035-036-240400-
   NORTH CENTRAL IOWA

CITY           SKY/WX    TMP DP  RH WIND       PRES   REMARKS
ALGONA *       CLOUDY    32  32 100 E5        29.84S WCI  27
CLARION *      CLOUDY    32  32 100 CALM      29.85S
ESTHERVILLE    CLOUDY    31  28  89 CALM      29.83S
FORT DODGE *   CLOUDY    32  27  80 CALM      29.85R
MASON CITY     CLOUDY    31  27  85 N3        29.85S
FOREST CITY *  CLOUDY    32  32 100 NW5       29.84S WCI  27
WEBSTER CITY * CLOUDY    32 N/A N/A NE5       29.82S WCI  27
IOWA FALLS *   CLOUDY    33  30  86 CALM      29.86R
$$

IAZ007>011-017>019-026>030-037>042-050>054-066-240400-
   NORTHEAST IOWA

CITY           SKY/WX    TMP DP  RH WIND       PRES   REMARKS
CEDAR RAPIDS   CLOUDY    31  29  92 W3        29.84S
CHARLES CITY * CLOUDY    32  30  93 CALM      29.84F
CLINTON *      CLOUDY    34  33  96 W7        29.85R WCI  28
DECORAH *      CLOUDY    32  30  93 CALM      29.82S
DUBUQUE        CLOUDY    34  32  92 W5        29.83S WCI  30
MONTICELLO *   CLOUDY    34  30  86 CALM      29.84S
OELWEIN *      CLOUDY    32  32 100 CALM      29.84S
WATERLOO       CLOUDY    33  28  81 N3        29.85R
$$

IAZ064-065-067-068-078-240400-
   EAST CENTRAL IOWA

CITY           SKY/WX    TMP DP  RH WIND       PRES   REMARKS
DAVENPORT      CLOUDY    34  32  92 W8        29.85R WCI  27
IOWA CITY      CLOUDY    34  29  82 W5        29.87R WCI  30
MUSCATINE *    CLOUDY    34  30  86 CALM      29.88R
QUAD CITIES    CLOUDY    36  31  82 W7        29.85R WCI  30
$$

IAZ062-063-075>077-085>089-095>099-240400-
   SOUTHEAST IOWA

CITY           SKY/WX    TMP DP  RH WIND       PRES   REMARKS
BURLINGTON     CLOUDY    34  30  85 NW6       29.86S WCI  29
FAIRFIELD *    CLOUDY    32  30  93 N3        29.86S
FORT MADISON * CLOUDY    34  30  86 NW3       29.87S
KEOKUK *       CLOUDY    34 N/A N/A NW5       29.86S WCI  30
OSKALOOSA *    CLOUDY    32  30  91 CALM      29.87R
CENTERVILLE *  CLOUDY    32  32 100 CALM      29.88R
OTTUMWA        CLOUDY    33  28  81 N5        29.86R WCI  29
WASHINGTON *   CLOUDY    32  32 100 CALM      29.87F
$$

ABBREVIATIONS USED IN REMARKS
   TC - TEMPERATURES IN CELSIUS
  WCI - WIND CHILL INDEX
   HX - HEAT INDEX
  VSB - VISIBILITY
$$





USA.gov is the U.S. government's official web portal to all federal, state and local government web resources and services.